Location: Pilipovskiye Korichintsy
(49.1833°N, 27.4667°E)
Time: 23:53:46
(UTC+00:00)

Envisat - Visible Passes

Search period start: 20 September 2020 00:00
Search period end: 30 September 2020 00:00
Orbit: 764 x 766 km, 98.1° (Epoch: 20 September)

Date Brightness Start Highest point End Pass type
(mag) Time Alt. Az. Time Alt. Az. Time Alt. Az.
20 Sep 5.9 03:15:49 10° NE 03:19:45 22° E 03:23:39 10° SE visible
21 Sep 6.7 02:41:34 10° ENE 02:42:26 10° E 02:43:18 10° E visible
22 Sep 6.1 16:40:17 10° SW 16:43:44 18° W 16:47:13 10° NW visible
23 Sep 6.1 03:04:50 10° NE 03:08:16 18° E 03:11:40 10° SE visible
24 Sep 6.7 17:08:24 10° W 17:09:34 11° W 17:10:43 10° WNW visible
25 Sep 6.0 16:28:18 10° SW 16:32:15 22° W 16:36:13 10° NW visible
26 Sep 6.3 02:54:01 10° NE 02:56:45 14° E 02:59:28 10° ESE visible
27 Sep 6.4 16:55:31 10° WSW 16:58:01 14° W 17:00:33 10° NW visible
28 Sep 5.8 03:18:26 10° NE 03:22:31 24° E 03:26:33 10° SE visible
29 Sep 6.5 02:43:35 10° ENE 02:45:13 11° E 02:46:50 10° ESE visible
